1326153632787,2.35862
1326153692787,2.35825
1326153752787,2.36995
1326153812787,2.39279
1326153872787,2.35031
1326153932787,2.38297
1326153992787,2.38341
1326154052787,2.38101
1326154112787,2.37885
1326154172787,2.36485
1326154232787,2.36870
1326154292787,2.37515
1326154352787,2.38344
1326154412787,2.36685
1326154472787,2.38189
1326154532787,2.37172
1326154592787,2.39849
1326154652787,2.37187
1326154712787,2.37903
1326154772787,2.38665
1326154832788,2.39669
1326154892787,2.39097
1326154952787,2.38003
1326155012787,2.35837
1326155072787,2.35880
1326155132787,2.36771
1326155192787,2.38339
1326155252787,2.37248
1326155312787,2.38279
1326155372787,2.34181
1326155432787,2.36150
1326155492787,2.35583
1326155552787,2.35336
1326155612787,2.37816
1326155672787,2.35217
1326155732787,2.35424
1326155792787,2.38547
1326155852787,2.38073
1326155912787,2.37817
1326155972787,2.35626
1326156032787,2.35902
1326156092787,2.38129
1326156152788,2.38203
1326156212788,2.52570
1326156272787,2.35803
1326156332787,2.35901
1326156392787,2.33726
1326156452787,2.35926
1326156512787,2.35544
1326156572787,2.36839
1326156632787,2.35024
1326156692787,2.36615
1326156752787,2.35416
1326156812787,2.34826
1326156872787,2.36330
1326156932787,2.34653
1326156992787,2.36487
1326157052787,2.38123
1326157112787,2.35147
1326157172787,2.36635
1326157232797,2.35621
1326157292797,2.35379
1326157352797,2.35267
1326157412797,2.35749
1326157472797,2.36636
1326157532797,2.35900
1326157592797,2.34072
1326157652797,2.35673
1326157712797,2.35482
1326157772797,2.35814
1326157832797,2.36491
1326157892797,2.34005
1326157952797,2.37110
1326158012797,2.33586
1326158072797,2.32497
1326158132797,2.35173
1326158192797,2.35408
1326158252797,2.34498
1326158312797,2.35752
1326158372797,2.33051
1326158432797,2.32135
1326158492798,2.33047
1326158552797,2.34967
1326158612797,2.34035
1326158672797,2.36759
1326158732797,2.36687
1326158792797,2.34549
1326158852797,2.32831
1326158912797,2.34354
1326158972797,2.35052
1326159032797,2.34591
1326159092797,2.35276
1326159152797,2.35943
1326159212797,2.34138
1326159272797,2.33067
1326159332797,2.34576
1326159392797,2.33668
1326159452797,2.33129
1326159512797,2.33959
1326159572797,2.33544
1326159632797,2.34085
1326159692797,2.35327
1326159752797,2.35208
1326159812797,2.34666
1326159872798,2.32300
1326159932797,2.35200
1326159992797,2.32251
1326160052797,2.31500
1326160112797,2.33155
1326160172797,2.33599
1326160232797,2.33561
1326160292797,2.35439
1326160352797,2.34160
1326160412797,2.36782
1326160472797,2.35507
1326160532797,2.34766
1326160592797,2.34887
1326160652797,2.34521
1326160712797,2.35936
1326160772797,2.33341
1326160832807,2.34849
1326160892807,2.33228
1326160952807,2.34203
1326161012807,2.33431
1326161072807,2.33483
1326161132807,2.33606
1326161192807,2.34341
1326161252807,2.32992
1326161312807,2.34075
1326161372807,2.34363
1326161432807,2.33809
1326161492807,2.34950
1326161552807,2.34181
1326161612807,2.30936
1326161672807,2.33322
1326161732807,2.34592
1326161792807,2.33588
1326161852807,2.34644
1326161912807,2.33482
1326161972807,2.32077
1326162032807,2.34118
1326162092807,2.29828
1326162152807,2.33100
1326162212807,2.32351
1326162272807,2.33775
1326162332807,2.34528
1326162392807,2.32893
1326162452807,2.32391
1326162512807,2.32549
1326162572807,2.34042
1326162632807,2.31323
1326162692807,2.35008
1326162752807,2.34931
1326162812807,2.32074
1326162872807,2.32906
1326162932807,2.31529
1326162992807,2.33777
1326163052807,2.32983
1326163112807,2.31465
1326163172807,2.34327
1326163232807,2.31495
1326163292807,2.32012
1326163352807,2.33360
1326163412807,2.32473
1326163472807,2.33285
1326163532807,2.32805
1326163592807,2.30792
1326163652807,2.30658
1326163712807,2.32142
1326163772807,2.30698
1326163832807,2.31142
1326163892807,2.33727
1326163952807,2.31578
1326164012807,2.31485
1326164072807,2.30458
1326164132807,2.31919
1326164192807,2.31280
1326164252807,2.29759
1326164312807,2.31171
1326164372807,2.31747
1326164432817,2.30636
1326164492817,2.31991
1326164552818,2.32713
1326164612817,2.29392
1326164672817,2.31639
1326164732817,2.30111
1326164792817,2.29749
1326164852817,2.32509
1326164912817,2.31549
1326164972817,2.29790
1326165032817,2.30793
1326165092817,2.08388
1326165632817,2.31632
1326165692817,2.21518
1326165752817,2.30912
1326165812817,2.29798
1326165872818,2.32602
1326165932817,2.31651
1326165992817,2.31249
1326166052817,2.31888
1326166112817,2.32037
1326166172817,2.29938
1326166232817,2.31630
1326166292817,2.30493
1326166352817,2.32407
1326166412817,2.29671
1326166472817,2.31384
1326166532817,2.29646
1326166592817,2.32232
1326166652817,2.29523
1326166712817,2.32298
1326166772817,2.29646
1326166832817,2.30969
1326166892817,2.31489
1326166952817,2.30495
1326167012817,2.30711
1326167072817,2.29860
1326167132817,2.30948
1326167192817,2.30689
1326167252818,2.33872
1326167312817,2.31532
1326167372817,2.31167
1326167432817,2.33873
1326167492817,2.31835
1326167552817,2.32476
1326167612817,2.32439
1326167672817,2.47470
1326167732817,2.33281
1326167792817,2.32950
1326167852817,2.32099
1326167912817,2.30559
1326167972817,2.31464
1326168032828,2.32760
1326168092828,2.32366
1326168152828,2.33212
1326168212828,2.31110
1326168272828,2.32937
1326168332828,2.33884
1326168392828,2.31097
1326168452828,2.31669
1326168512828,2.31361
1326168572828,2.33521
1326168632828,2.31865
1326168692828,2.32361
1326168752828,2.33290
1326168812828,2.31501
1326168872828,2.31655
1326168932828,2.32657
1326168992828,2.31013
1326169052828,2.34397
1326169112828,2.32196
1326169172828,2.32943
1326169232828,2.32791
1326169292828,2.31002
1326169352828,2.33380
1326169412828,2.31981
1326169472828,2.31994
1326169532828,2.32149
1326169592828,2.30863
1326169652828,2.34715
1326169712828,2.32013
1326169772828,2.30199
1326169832828,2.30928
1326169892828,2.31492
1326169952828,2.31020
1326170012828,2.31542
1326170072828,2.31916
1326170132828,2.29179
1326170192828,2.29741
1326170252828,2.32284
1326170312828,2.29893
1326170372828,2.30903
1326170432828,2.29727
1326170492828,2.32201
1326170552828,2.29811
1326170612828,2.29345
1326170672828,2.30572
1326170732828,2.27739
1326170792828,2.30478
1326170852828,2.30151
1326170912828,2.30143
1326170972828,2.31464
1326171032828,2.29655
1326171092828,2.30328
1326171152828,2.29960
1326171212828,2.29673
1326171272828,2.30245
1326171332828,2.31936
1326171392828,2.30103
1326171452828,2.30269
1326171512828,2.31707
1326171572828,2.31571
1326171632838,2.29702
1326171692838,2.30093
1326171752838,2.30735
1326171812838,2.28994
1326171872838,2.29900
1326171932838,2.30241
1326171992838,2.29412
1326172052838,2.30210
1326172112838,2.28828
1326172172838,2.30185
1326172232838,2.29828
1326172292838,2.28974
1326172352838,2.28863
1326172412838,2.28139
1326172472838,2.25661
1326172532838,2.29287
1326172592838,2.29479
1326172652838,2.27879
1326172712838,2.29616
1326172772838,2.29008
1326172832838,2.29189
1326172892838,2.30008
1326172952838,2.27690
1326173012838,2.29116
1326173072838,2.29000
1326173132838,2.26551
1326173192838,2.28004
1326173252838,2.27946
1326173312838,2.28886
1326173372838,2.28688
1326173432838,2.23077
1326173492838,2.28145
1326173552838,2.29245
1326173612838,2.30737
1326173672838,2.29102
1326173732838,2.28595
1326173792838,2.27208
1326173852838,2.28514
1326173912838,2.26885
1326173972838,2.30249
1326174032838,2.29117
1326174092838,2.28132
1326174152838,2.25978
1326174212838,2.27491
1326174272838,2.27250
1326174332838,2.26569
1326174392838,2.28961
1326174452838,2.29948
1326174512838,2.29043
1326174572838,2.27815
1326174632838,2.26748
1326174692838,2.28791
1326174752838,2.28256
1326174812838,2.29321
1326174872838,2.27502
1326174932838,2.27327
1326174992838,2.26348
1326175052838,2.28060
1326175112838,2.26989
1326175172838,2.27326
1326175232849,2.25229
1326175292849,2.26414
1326175352849,2.32471
1326175412849,2.28529
1326175472849,2.27195
1326175532849,2.27750
1326175592849,2.29258
1326175652849,2.27814
1326175712849,2.28228
1326175772849,2.26817
1326175832849,2.29130
1326175892849,2.28715
1326175952849,2.28626
1326176012849,2.28647
1326176072849,2.26501
1326176132849,2.28168
1326176192849,2.27146
1326176252849,2.27150
1326176312849,2.26897
1326176372849,2.26943
1326176432849,2.27307
1326176492849,2.28102
1326176552849,2.28779
1326176612849,2.28485
1326176672849,2.27431
1326176732849,2.27967
1326176792849,2.28027
1326176852849,2.27648
1326176912849,2.26214
1326176972849,2.25887
1326177032849,2.28364
1326177092849,2.27051
1326177152849,2.28742
1326177212849,2.29133
1326177272849,2.27702
1326177332849,2.27689
1326177392849,2.22673
1326177452849,2.26295
1326177512849,2.27218
1326177572849,2.26372
1326177632849,2.27956
1326177692849,2.26683
1326177752849,2.27350
1326177812849,2.28434
1326177872849,2.29374
1326177932849,2.27461
1326177992849,2.27936
1326178052849,2.26815
1326178112849,2.26361
1326178172849,2.25553
1326178232849,2.27220
1326178292849,2.26102
1326178352849,2.26746
1326178412849,2.27568
1326178472849,2.28040
1326178532849,2.28799
1326178592849,2.26614
1326178652849,2.25527
1326178712849,2.26552
1326178772849,2.26085
1326178832860,2.25805
1326178892860,2.30616
1326178952860,2.26540
1326179012860,2.27304
1326179072860,2.27523
1326179132860,2.26750
1326179192860,2.27549
1326179252860,2.26750
1326179312860,2.26603
1326179372860,2.28414
1326179432860,2.26218
1326179492860,2.27690
1326179552860,2.25471
1326179612860,2.27788
1326179672860,2.28936
1326179732860,2.27549
1326179792860,2.27394
1326179852860,2.26277
1326179912860,2.27318
1326179972860,2.27611
1326180032860,2.27394
1326180092860,2.27203
1326180152860,2.27101
1326180212860,2.27286
1326180272860,2.27218
1326180332860,2.27861
1326180392860,2.26695
1326180452860,2.25779
1326180512860,2.27454
1326180572860,2.25740
1326180632860,2.28121
1326180692860,2.29376
1326180752860,2.28368
1326180812860,2.26219
1326180872860,2.27765
1326180932860,2.26904
1326180992860,2.27048
1326181052860,2.26749
1326181112860,2.28413
1326181172860,2.27389
1326181232860,2.28843
1326181292860,2.27084
1326181352860,2.27002
1326181412860,2.26924
1326181472860,2.25093
1326181532860,2.28758
1326181592860,2.27557
1326181652860,2.28202
1326181712860,2.27030
1326181772860,2.27635
1326181832860,2.28318
1326181892860,2.32268
1326181952860,2.29270
1326182012860,2.28630
1326182072860,2.27125
1326182132860,2.27992
1326182192860,2.31566
1326182252860,2.26331
1326182312860,2.28402
1326182372860,2.27759
1326182432871,2.28328
1326182492871,2.25301
1326182552871,2.25735
1326182612871,2.29060
1326182672871,2.28729
1326182732871,2.28798
1326182792871,2.26917
1326182852871,2.27075
1326182912871,2.29730
1326182972871,2.27943
1326183032871,2.29056
1326183092871,2.30205
1326183152871,2.25268
1326183212871,2.29281
1326183272871,2.29219
1326183332871,2.27369
1326183392871,2.26250
1326183452871,2.28531
1326183512871,2.28029
1326183572871,2.29148
1326183632871,2.28405
1326183692871,2.28765
1326183752871,2.29393
1326183812871,2.28196
1326183872871,2.28666
1326183932871,2.27983
1326183992871,2.29429
1326184052871,2.28929
1326184112871,2.28755
1326184172871,2.29682
1326184232871,2.25968
1326184292871,2.29177
1326184352871,2.29156
1326184412871,2.27731
1326184472871,2.26605
1326184532871,2.31095
1326184592871,2.28454
1326184652871,2.27862
1326184712871,2.27209
1326184772871,2.28802
1326184832871,2.27774
1326184892871,2.29434
1326184952871,2.28220
1326185012871,2.27451
1326185072871,2.29882
1326185132871,2.29464
1326185192871,2.29149
1326185252871,2.29992
1326185312871,2.28919
1326185372871,2.30458
1326185432871,2.27439
1326185492871,2.27088
1326185552871,2.27204
1326185612871,2.28890
1326185672871,2.27801
1326185732871,2.27896
1326185792871,2.27604
1326185852871,2.27413
1326185912871,2.28499
1326185972871,2.27011
1326186032882,2.28311
1326186092882,2.27139
1326186152882,2.26434
1326186212882,2.27351
1326186272882,2.27592
1326186332882,2.25806
1326186392882,2.29430
1326186452882,2.27934
1326186512882,2.26741
1326186572882,2.29677
1326186632882,2.28164
1326186692882,2.28396
1326186752882,2.30033
1326186812882,2.28153
1326186872882,2.27378
1326186932882,2.28043
1326186992882,2.28339
1326187052882,2.28437
1326187112882,2.28506
1326187172882,2.29283
1326187232882,2.29266
1326187292882,2.29449
1326187352882,2.28675
1326187412882,2.28759
1326187472882,2.27927
1326187532882,2.30222
1326187592882,2.28216
1326187652882,2.27513
1326187712882,2.28938
1326187772882,2.29007
1326187832882,2.28294
1326187892882,2.30148
1326187952882,2.28106
1326188012882,2.28666
1326188072882,2.27988
1326188132882,2.28723
1326188192882,2.28851
1326188252882,2.28663
1326188312882,2.27038
1326188372882,2.29665
1326188432882,2.28047
1326188492882,2.28830
1326188552882,2.27687
1326188612882,2.28794
1326188672882,2.27559
1326188732882,2.26809
1326188792882,2.27683
1326188852882,2.27905
1326188912882,2.29034
1326188972882,2.27420
1326189032882,2.29108
1326189092882,2.27301
1326189152882,2.28110
1326189212882,2.27795
1326189272882,2.26569
1326189332882,2.26228
1326189392882,2.27414
1326189452882,2.27095
1326189512882,2.29636
1326189572882,2.24782
1326189632893,2.28088
1326189692893,2.26227
1326189752893,2.26481
1326189812893,2.25642
1326189872893,2.27161
1326189932893,2.27481
1326189992893,2.25854
1326190052893,2.26500
1326190112893,2.26596
1326190172893,2.27355
1326190232893,2.27745
1326190292893,2.27479
1326190352893,2.27577
1326190412893,2.26624
1326190472893,2.28064
1326190532893,2.26595
1326190592893,2.24990
1326190652893,2.26471
1326190712893,2.26834
1326190772893,2.25883
1326190832893,2.25634
1326190892893,2.27112
1326190952893,2.27655
1326191012893,2.27592
1326191072893,2.27453
1326191132893,2.26692
1326191192893,2.26678
1326191252893,2.26786
1326191312893,2.26573
1326191372893,2.28609
1326191432893,2.29099
1326191492893,2.27882
1326191552893,2.25583
1326191612893,2.27508
1326191672893,2.27916
1326191732893,2.26027
1326191792893,2.27321
1326191852893,2.28526
1326191912893,2.26345
1326191972893,2.26017
1326192032893,2.26630
1326192092893,2.26962
1326192152893,2.26654
1326192212893,2.27431
1326192272893,2.26100
1326192332893,2.27149
1326192392893,2.25221
1326192452893,2.26789
1326192512893,2.27241
1326192572893,2.26212
1326192632893,2.26798
1326192692893,2.26208
1326192752893,2.26784
1326192812893,2.24406
1326192872893,2.25704
1326192932893,2.26403
1326192992893,2.25598
1326193052893,2.26104
1326193112893,2.26478
1326193172893,2.26076
1326193232905,2.24279
1326193292905,2.25229
1326193352905,2.25968
1326193412905,2.26950
1326193472905,2.26694
1326193532905,2.25748
1326193592905,2.27236
1326193652905,2.24553
1326193712905,2.26067
1326193772905,2.26736
1326193832905,2.26711
1326193892905,2.25842
1326193952905,2.25340
1326194012905,2.26202
1326194072905,2.25016
1326194132905,2.25647
1326194192905,2.26807
1326194252905,2.25510
1326194312905,2.26788
1326194372905,2.27510
1326194432905,2.25833
1326194492905,2.24391
1326194552905,2.26711
1326194612905,2.25978
1326194672905,2.23703
1326194732905,2.23613
1326194792905,2.34631
1326194852905,2.26528
1326194912905,2.24475
1326194972905,2.26106
1326195032905,2.26372
1326195092905,2.25705
1326195152905,2.26933
1326195212905,2.25563
1326195272905,2.24437
1326195332905,2.26117
1326195392905,2.26548
1326195452905,2.26175
1326195512905,2.28071
1326195572905,2.25572
1326195632905,2.27183
1326195692905,2.26292
1326195752905,2.31682
1326195812905,2.25410
1326195872905,2.25539
1326195932905,2.56394
1326195992905,2.28445
1326196052905,2.26131
1326196112905,2.24187
1326196172905,2.26170
1326196232905,2.25892
1326196292905,2.24228
1326196352905,2.25609
1326196412905,2.24675
1326196472905,2.25099
1326196532905,2.26076
1326196592905,2.24583
1326196652905,2.24292
1326196712905,2.25960
1326196772905,2.26929
1326196832916,2.27596
1326196892916,2.26748
1326196952916,2.26964
1326197012916,2.25813
1326197072916,2.26338
1326197132916,2.22840
1326197192916,2.26791
1326197252916,2.27655
1326197312916,2.26588
1326197372916,2.27012
1326197432916,2.27283
1326197492916,2.26489
1326197552916,2.28083
1326197612916,2.27093
1326197672916,2.26106
1326197732916,2.27406
1326197792916,2.26593
1326197852916,2.24868
1326197912916,2.26217
1326197972916,2.26398
1326198032916,2.25536
1326198092916,2.27215
1326198152916,2.25936
1326198212916,2.25748
1326198272916,2.26177
1326198332916,2.26285
1326198392916,2.27377
1326198452916,2.26598
1326198512916,2.26929
1326198572916,2.27494
1326198632916,2.27664
1326198692916,2.28263
1326198752916,2.27190
1326198812916,2.26787
1326198872916,2.26497
1326198932916,2.27639
1326198992916,2.28292
1326199052916,2.28656
1326199112916,2.27531
1326199172916,2.29497
1326199232916,2.27700
1326199292916,2.27814
1326199352916,2.27277
1326199412916,2.26426
1326199472916,2.25155
1326199532916,2.25401
1326199592916,2.25784
1326199652916,2.26182
1326199712916,2.27857
1326199772916,2.26287
1326199832916,2.26613
1326199892916,2.27447
1326199952916,2.24874
1326200012916,2.27307
1326200072916,2.27521
1326200132916,2.25844
1326200192916,2.28528
1326200252916,2.25295
1326200312916,2.27909
1326200372916,2.28272
1326200432928,2.26876
1326200492928,2.26859
1326200552928,2.27299
1326200612928,2.27489
1326200672928,2.27294
1326200732928,2.27307
1326200792928,2.27916
1326200852928,2.26163
1326200912928,2.26736
1326200972928,2.27271
1326201032928,2.27607
1326201092928,2.25924
1326201152928,2.26672
1326201212928,2.25464
1326201272928,2.27194
1326201332928,2.25560
1326201392928,2.28780
1326201452928,2.25691
1326201512928,2.27789
1326201572928,2.26564
1326201632928,2.27822
1326201692928,2.26211
1326201752928,2.26903
1326201812928,2.27599
1326201872928,2.27458
1326201932928,2.25916
1326201992928,2.26754
1326202052928,2.25083
1326202112928,2.28055
1326202172928,2.27861
1326202232928,2.25346
1326202292928,2.27471
1326202352928,2.27076
1326202412928,2.25588
1326202472928,2.26294
1326202532928,2.26261
1326202592928,2.26788
1326202652928,2.27436
1326202712928,2.27917
1326202772928,2.25020
1326202832928,2.25816
1326202892928,2.24327
1326202952928,2.27021
1326203012928,2.28615
1326203072928,2.26059
1326203132928,2.27176
1326203192928,2.24034
1326203252928,2.25326
1326203312928,2.27145
1326203372928,2.25386
1326203432928,2.25956
1326203492928,2.24972
1326203552928,2.26953
1326203612928,2.26056
1326203672928,2.26890
1326203732928,2.25013
1326203792928,2.28093
1326203852928,2.24923
1326203912928,2.26172
1326203972928,2.25779
1326204032939,2.25629
1326204092939,2.27076
1326204152939,2.25483
1326204212939,2.26309
1326204272939,2.26496
1326204332939,2.25804
1326204392939,2.25883
1326204452939,2.27138
1326204512939,2.25831
1326204572939,2.27469
1326204632939,2.25166
1326204692939,2.25121
1326204752939,2.25383
1326204812939,2.25687
1326204872939,2.24913
1326204932939,2.24446
1326204992939,2.25743
1326205052939,2.23939
1326205112939,2.26394
1326205172939,2.25844
1326205232939,2.27223
1326205292939,2.26803
1326205352939,2.26390
1326205412939,2.27371
1326205472939,2.24962
1326205532939,2.26414
1326205592939,2.23931
1326205652939,2.26852
1326205712939,2.25048
1326205772939,2.25219
1326205832939,2.26107
1326205892939,2.28320
1326205952939,2.24999
1326206012939,2.22889
1326206072939,2.24334
1326206132939,2.23735
1326206192939,2.27316
1326206252939,2.24811
1326206312939,2.27131
1326206372939,2.25167
1326206432939,2.25639
1326206492939,2.25793
1326206552939,2.24933
1326206612939,2.24495
1326206672939,2.24610
1326206732939,2.23642
1326206792939,2.22208
1326206852939,2.23583
1326206912939,2.24752
1326206972939,2.23722
1326207032939,2.25331
1326207092939,2.25986
1326207152939,2.25228
1326207212939,2.24742
1326207272939,2.23663
1326207332939,2.23257
1326207392939,2.23826
1326207452939,2.27967
1326207512939,2.25783
1326207572939,2.23824
1326207632951,2.22044
1326207692951,2.22564
1326207752951,2.23530
1326207812951,2.25905
1326207872951,2.23821
1326207932951,2.22805
1326207992951,2.24232
1326208052951,2.26473
1326208112951,2.23202
1326208172951,2.22551
1326208232951,2.24461
1326208292951,2.25112
1326208352951,2.24417
1326208412951,2.22332
1326208472951,2.24435
1326208532951,2.26324
1326208592951,2.25833
1326208652951,2.23386
1326208712951,2.24169
1326208772951,2.24966
1326208832951,2.21384
1326208892951,2.24193
1326208952951,2.24754
1326209012951,2.22310
1326209072951,2.23644
1326209132951,2.24958
1326209192951,2.25954
1326209252951,2.23713
1326209312951,2.26272
1326209372951,2.24318
1326209432951,2.24576
1326209492951,2.26039
1326209552951,2.26659
1326209612951,2.24835
1326209672951,2.24627
1326209732951,2.24108
1326209792951,2.26010
1326209852951,2.24630
1326209912951,2.22930
1326209972951,2.25319
1326210032951,2.24882
1326210092951,2.24016
1326210152951,2.25367
1326210212951,2.23582
1326210272951,2.24489
1326210332951,2.24776
1326210392951,2.23686
1326210452951,2.23680
1326210512951,2.24829
1326210572951,2.22721
1326210632951,2.23635
1326210692951,2.23689
1326210752951,2.23992
1326210812951,2.21937
1326210872951,2.24618
1326210932951,2.24253
1326210992951,2.24667
1326211052951,2.24287
1326211112951,2.23026
1326211172951,2.24944
1326211232962,2.23131
1326211292962,2.24135
1326211352962,2.24474
1326211412962,2.25254
1326211472962,2.23574
1326211532962,2.24475
1326211592962,2.24692
1326211652962,2.25483
1326211712962,2.26529
1326211772962,2.23112
1326211832962,2.24974
1326211892962,2.24094
1326211952962,2.24714
1326212012962,2.24368
1326212072962,2.25859
1326212132962,2.26062
1326212192962,2.25751
1326212252962,2.25110
1326212312962,2.24735
1326212372962,2.27044
1326212432962,2.26384
1326212492962,2.25152
1326212552962,2.26571
1326212612962,2.26128
1326212672962,2.26818
1326212732962,2.26782
1326212792962,2.25749
1326212852962,2.24906
1326212912962,2.25172
1326212972962,2.25190
1326213032962,2.26705
1326213092962,2.26392
1326213152962,2.27314
1326213212962,2.24367
1326213272962,2.25531
1326213332962,2.25180
1326213392962,2.29241
1326213452962,2.27619
1326213512962,2.26701
1326213572962,2.27240
1326213632962,2.28195
1326213692962,2.26644
1326213752962,2.25492
1326213812962,2.26372
1326213872962,2.27397
1326213932962,2.26938
1326213992962,2.27850
1326214052962,2.25316
1326214112962,2.27208
1326214172962,2.26890
1326214232962,2.26310
1326214292962,2.26362
1326214352962,2.27927
1326214412962,2.26524
1326214472962,2.28071
1326214532962,2.28583
1326214592962,2.25857
1326214652962,2.27997
1326214712962,2.23358
1326214772962,2.28924
1326214832973,2.26744
1326214892973,2.27554
1326214952973,2.28428
1326215012973,2.25769
1326215072973,2.26284
1326215132973,2.29029
1326215192973,2.26477
1326215252973,2.28454
1326215312973,2.27570
1326215372973,2.26380
1326215432973,2.27837
1326215492973,2.26958
1326215552973,2.28078
1326215612973,2.27568
1326215672973,2.28041
1326215732973,2.27233
1326215792973,2.27514
1326215852973,2.29779
1326215912973,2.27439
1326215972973,2.27665
1326216032973,2.26713
1326216092973,2.28694
1326216152973,2.27241
1326216212973,2.27405
1326216272973,2.26170
1326216332973,2.27991
1326216392973,2.28962
1326216452973,2.30497
1326216512973,2.26821
1326216572973,2.26670
1326216632973,2.26832
1326216692973,2.27571
1326216752973,2.28348
1326216812973,2.27975
1326216872973,2.27088
1326216932973,2.26589
1326216992973,2.27392
1326217052973,2.28051
1326217112973,2.26076
1326217172973,2.27497
1326217232973,2.27162
1326217292973,2.28685
1326217352973,2.26557
1326217412973,2.26334
1326217472973,2.27367
1326217532973,2.27409
1326217592973,2.25932
1326217652973,2.29229
1326217712973,2.25477
1326217772973,2.28985
1326217832973,2.27759
1326217892973,2.26857
1326217952973,2.27813
1326218012973,2.27498
1326218072973,2.28282
1326218132973,2.25996
1326218192973,2.25442
1326218252973,2.27786
1326218312973,2.26312
1326218372973,2.27181
1326218432984,2.27790
1326218492984,2.26885
1326218552984,2.28787
1326218612984,2.27280
1326218672984,2.27345
1326218732984,2.29023
1326218792984,2.26810
1326218852984,2.29902
1326218912984,2.27039
1326218972984,2.25872
1326219032984,2.27872
1326219092984,2.25482
1326219152984,2.26589
1326219212984,2.27649
1326219272984,2.27736
1326219332984,2.26777
1326219392984,2.27172
1326219452984,2.27422